(167368) = 2003 WG58

Discovered at Kitt Peak on 2003-11-18 by Spacewatch.

Orbit

Orbit type: Main Belt

Note: WebGL enabled browser required.

epoch2024-03-31.0
epoch JD2460400.5
perihelion date2020-11-29.82187
perihelion JD2459183.32187
argument of perihelion (°)124.47007
ascending node (°)246.19885
inclination (°)2.43816
eccentricity0.0671386
perihelion distance (AU)2.4988878
Tisserand w.r.t. Jupiter3.4
ΔV w.r.t. Earth (km/sec)9.9
semimajor axis (AU)2.6787342
mean anomaly (°)273.63004
mean daily motion (°/day)0.22480690
aphelion distance (AU)2.859
period (years)4.38
P-vector [x]0.98203050
P-vector [y]0.15618235
P-vector [z]0.10593943
Q-vector [x]-0.18466480
Q-vector [y]0.91100953
Q-vector [z]0.36872829
absolute magnitude16.31
phase slope0.15
uncertainty0
referenceE2024-GD4
observations used636
oppositions17
arc length (days)7973
first opposition used2002
last opposition used2024
residual rms (arc-secs)0.76
perturbers coarse indicatorM-v
perturbers precise indicator003Ek
first observation date used2002-06-11.0
last observation date used2024-04-09.0
computer nameMPCLINUX
JD of orbit computation2456937.250805
perihelion JD uncertainty (days)1.4936E-04
argument of perihelion uncertainty (°)1.0332E-04
ascending node uncertainty (°)9.9233E-05
inclination uncertainty (°)4.0715E-06
eccentricity uncertainty 4.3823E-08
perihelion distance uncertainty (AU)1.2186E-07
Minimum Orbit Intersection Distances (in AU)
for orbit epoch: 2460400.5, reference: E2024-GD4
Mercury2.13887
Venus1.77711
Earth1.49933
Mars1.05604
Jupiter2.45726
Saturn6.37305
Uranus15.6014
Neptune27.3055

Observations

639 total observations over interval: 2002 06 11.45976 – 2023 06 08.314231
These data are available for download (format description).

Date (UT) J2000 RA J2000 Dec Magn Location Ref
2002 06 11.45976 20 11 09.02 -17 39 39.9 19.7 R 644 – Palomar Mountain/NEAT MPS 282334
2002 06 11.47038 20 11 08.80 -17 39 39.6 19.9 R 644 – Palomar Mountain/NEAT MPS 282334
2002 06 11.48078 20 11 08.58 -17 39 39.8 19.4 R 644 – Palomar Mountain/NEAT MPS 282334
2003 10 26.39187 04 07 26.23 +21 52 06.4 20.8 V 691 – Steward Observatory, Kitt Peak-Spacewatch MPS 139316
2003 10 26.41920 04 07 25.15 +21 52 02.1 21.0 V 691 – Steward Observatory, Kitt Peak-Spacewatch MPS 139316
2003 10 26.44653 04 07 24.12 +21 51 58.9 21.3 V 691 – Steward Observatory, Kitt Peak-Spacewatch MPS 139316
2003 11 18.25417 03 48 28.08 +20 36 50.1 19.6 V 691 – Steward Observatory, Kitt Peak-Spacewatch MPS 92034
2003 11 18.28216 03 48 26.43 +20 36 43.8 19.9 V 691 – Steward Observatory, Kitt Peak-Spacewatch MPS 92034
2003 11 18.31110 03 48 24.69 +20 36 36.7 19.7 V 691 – Steward Observatory, Kitt Peak-Spacewatch MPS 92034
2003 11 19.21538 03 47 32.68 +20 32 57.7 19.2 R 699 – Lowell Observatory-LONEOS MPS 92837
2003 11 19.23455 03 47 31.52 +20 32 53.2   699 – Lowell Observatory-LONEOS MPS 92837
2003 11 19.25373 03 47 30.40 +20 32 48.2   699 – Lowell Observatory-LONEOS MPS 92837
2003 11 19.27292 03 47 29.24 +20 32 44.4   699 – Lowell Observatory-LONEOS MPS 92837
2003 11 21.26411 03 45 34.00 +20 24 35.7 19.5   704 – Lincoln Laboratory ETS, New Mexico MPS 92034
2003 11 21.27715 03 45 33.21 +20 24 32.7 19.1   704 – Lincoln Laboratory ETS, New Mexico MPS 92034
2003 11 21.28967 03 45 32.51 +20 24 30.6 19.3   704 – Lincoln Laboratory ETS, New Mexico MPS 92034
2003 11 21.30264 03 45 31.65 +20 24 26.4 19.3   704 – Lincoln Laboratory ETS, New Mexico MPS 92034
2003 11 21.31561 03 45 30.93 +20 24 23.5 19.4   704 – Lincoln Laboratory ETS, New Mexico MPS 92034
2003 11 30.26191 03 37 07.22 +19 47 19.6 19.4 V 691 – Steward Observatory, Kitt Peak-Spacewatch MPS 92837
2003 11 30.28947 03 37 05.49 +19 47 14.3 19.9 V 691 – Steward Observatory, Kitt Peak-Spacewatch MPS 92837
2003 11 30.31743 03 37 03.92 +19 47 07.5 19.8 V 691 – Steward Observatory, Kitt Peak-Spacewatch MPS 92837
2003 12 18.25186 03 23 56.98 +18 42 02.6 19.8   644 – Palomar Mountain/NEAT MPS 95833
2003 12 18.27229 03 23 56.26 +18 41 59.4 19.6   644 – Palomar Mountain/NEAT MPS 95833
2003 12 18.29410 03 23 55.57 +18 41 55.4 19.7   644 – Palomar Mountain/NEAT MPS 95833
2005 03 03.29971 10 46 00.51 +03 48 58.1 19.6 R 703 – Catalina Sky Survey MPS 139316
2005 03 03.30771 10 46 00.00 +03 49 01.1 19.6 R 703 – Catalina Sky Survey MPS 139316
2005 03 03.31581 10 45 59.60 +03 49 03.6 19.4 R 703 – Catalina Sky Survey MPS 139316
2005 03 03.32390 10 45 59.14 +03 49 06.0 20.1 R 703 – Catalina Sky Survey MPS 139316
2005 03 17.26984 10 34 39.75 +05 02 52.0 19.7 R G96 – Mt. Lemmon Survey MPS 139316
2005 03 17.27583 10 34 39.48 +05 02 53.9 19.8 R G96 – Mt. Lemmon Survey MPS 139316
2005 03 17.28182 10 34 39.20 +05 02 55.7 19.8 R G96 – Mt. Lemmon Survey MPS 139316
2005 03 17.28778 10 34 38.93 +05 02 57.3 19.9 R G96 – Mt. Lemmon Survey MPS 139316
2005 03 17.35814 10 34 35.57 +05 03 17.9 18.6 R 703 – Catalina Sky Survey MPS 139316
2005 03 17.36683 10 34 35.25 +05 03 21.8 19.9 R 703 – Catalina Sky Survey MPS 139316
2005 03 17.37741 10 34 34.79 +05 03 26.3 19.2 R 703 – Catalina Sky Survey MPS 139316
2005 03 17.38613 10 34 34.34 +05 03 28.6 20.6 R 703 – Catalina Sky Survey MPS 139316
2005 04 12.15941 10 21 55.17 +06 42 51.7 19.6 R G96 – Mt. Lemmon Survey MPS 139316
2005 04 12.16543 10 21 55.10 +06 42 52.2 19.9 R G96 – Mt. Lemmon Survey MPS 139316
2005 04 12.17143 10 21 54.99 +06 42 53.2 20.1 R G96 – Mt. Lemmon Survey MPS 139316
2005 04 12.17744 10 21 54.92 +06 42 54.2 20.1 R G96 – Mt. Lemmon Survey MPS 139317
2006 05 22.62703 17 03 15.01 -22 28 29.9 21.6 V D35 – Lulin Observatory MPS 178430
2006 05 22.64588 17 03 14.12 -22 28 29.7 20.2 V D35 – Lulin Observatory MPS 178430
2006 05 22.66698 17 03 12.97 -22 28 26.4 21.2 V D35 – Lulin Observatory MPS 178430
2007 09 13.40122 00 48 24.10 +08 56 17.6 19.9 V 691 – Steward Observatory, Kitt Peak-Spacewatch MPS 215108
2007 09 13.41898 00 48 23.39 +08 56 13.3 19.8 V 691 – Steward Observatory, Kitt Peak-Spacewatch MPS 215108
2007 09 13.43667 00 48 22.67 +08 56 09.3 19.8 V 691 – Steward Observatory, Kitt Peak-Spacewatch MPS 215108
2007 09 15.39366 00 47 05.90 +08 48 22.8   691 – Steward Observatory, Kitt Peak-Spacewatch MPS 216175
2007 09 15.41125 00 47 05.14 +08 48 18.5   691 – Steward Observatory, Kitt Peak-Spacewatch MPS 216175
2007 09 15.42885 00 47 04.43 +08 48 14.2   691 – Steward Observatory, Kitt Peak-Spacewatch MPS 216175
2007 09 20.40224 00 43 32.19 +08 25 57.1 19.6 V 691 – Steward Observatory, Kitt Peak-Spacewatch MPS 216175
2007 09 20.41984 00 43 31.33 +08 25 52.0 19.4 V 691 – Steward Observatory, Kitt Peak-Spacewatch MPS 216175
2007 09 20.43744 00 43 30.54 +08 25 47.0 19.5 V 691 – Steward Observatory, Kitt Peak-Spacewatch MPS 216175
2007 09 22.28891 00 42 06.57 +08 16 38.3   704 – Lincoln Laboratory ETS, New Mexico MPS 406827
2007 10 09.21575 00 28 22.60 +06 39 42.5 19.7   704 – Lincoln Laboratory ETS, New Mexico MPS 218614
2007 10 09.22667 00 28 21.98 +06 39 38.2 19.8   704 – Lincoln Laboratory ETS, New Mexico MPS 218614
2007 10 09.23764 00 28 21.50 +06 39 34.0 19.9   704 – Lincoln Laboratory ETS, New Mexico MPS 218614
2007 10 09.24875 00 28 20.88 +06 39 29.8 20.1   704 – Lincoln Laboratory ETS, New Mexico MPS 218614
2007 10 12.22343 00 25 59.95 +06 21 26.4 20.6   704 – Lincoln Laboratory ETS, New Mexico MPS 220455
2007 10 12.23461 00 25 59.33 +06 21 24.0 20.1   704 – Lincoln Laboratory ETS, New Mexico MPS 220455
2007 10 12.24574 00 25 58.78 +06 21 21.2 20.7   704 – Lincoln Laboratory ETS, New Mexico MPS 220455
2007 10 14.28480 00 24 25.23 +06 09 05.3 19.4 V G96 – Mt. Lemmon Survey MPS 220455
2007 10 14.29311 00 24 24.84 +06 09 02.2 19.2 V G96 – Mt. Lemmon Survey MPS 220455
2007 10 14.30150 00 24 24.44 +06 08 59.2 19.4 V G96 – Mt. Lemmon Survey MPS 220455
2007 10 14.31012 00 24 24.04 +06 08 56.2 18.8 V G96 – Mt. Lemmon Survey MPS 220455
2007 10 15.20016 00 23 44.41 +06 03 39.8 19.6   704 – Lincoln Laboratory ETS, New Mexico MPS 220455
2007 10 15.21155 00 23 43.91 +06 03 35.2 19.6   704 – Lincoln Laboratory ETS, New Mexico MPS 220455
2007 10 15.22276 00 23 43.27 +06 03 32.8 20.1   704 – Lincoln Laboratory ETS, New Mexico MPS 220455
2007 10 15.23399 00 23 42.71 +06 03 28.8 20.6   704 – Lincoln Laboratory ETS, New Mexico MPS 220455
2007 10 15.24536 00 23 42.23 +06 03 22.5 19.6   704 – Lincoln Laboratory ETS, New Mexico MPS 220456
2007 10 17.15443 00 22 19.32 +05 52 09.4 20.1 r 699 – Lowell Observatory-LONEOS MPS 220456
2007 10 17.17729 00 22 18.33 +05 52 03.0 19.5 r 699 – Lowell Observatory-LONEOS MPS 220456
2007 10 17.20014 00 22 17.36 +05 51 54.3 19.4 r 699 – Lowell Observatory-LONEOS MPS 220456
2007 10 17.22298 00 22 16.22 +05 51 45.9 19.3 r 699 – Lowell Observatory-LONEOS MPS 220456
2007 10 19.19670 00 20 54.03 +05 40 26.7 19.7   704 – Lincoln Laboratory ETS, New Mexico MPS 222490
2007 10 19.20748 00 20 53.46 +05 40 22.4 19.8   704 – Lincoln Laboratory ETS, New Mexico MPS 222490
2007 10 19.21826 00 20 53.07 +05 40 19.7 20.3   704 – Lincoln Laboratory ETS, New Mexico MPS 222490
2007 10 19.22904 00 20 52.66 +05 40 16.5 19.9   704 – Lincoln Laboratory ETS, New Mexico MPS 222490
2007 11 07.14734 00 11 49.74 +04 13 22.1 19.9 V G96 – Mt. Lemmon Survey MPS 226636
2007 11 07.15290 00 11 49.66 +04 13 21.0 20.1 V G96 – Mt. Lemmon Survey MPS 226636
2007 11 07.15855 00 11 49.56 +04 13 20.1 19.9 V G96 – Mt. Lemmon Survey MPS 226637
2007 11 07.16411 00 11 49.45 +04 13 18.8 20.1 V G96 – Mt. Lemmon Survey MPS 226637
2007 12 04.15664 00 14 37.78 +03 47 50.2 21.0 V G96 – Mt. Lemmon Survey MPS 230844
2007 12 04.16318 00 14 37.96 +03 47 50.6 20.7 V G96 – Mt. Lemmon Survey MPS 230844
2007 12 04.16978 00 14 38.18 +03 47 51.1 20.6 V G96 – Mt. Lemmon Survey MPS 230844
2007 12 04.17634 00 14 38.29 +03 47 51.9 20.4 V G96 – Mt. Lemmon Survey MPS 230844
2008 10 31.49183 08 40 45.22 +16 34 27.3 21.5 V G96 – Mt. Lemmon Survey MPS 262935
2008 10 31.49733 08 40 45.51 +16 34 26.3 21.3 V G96 – Mt. Lemmon Survey MPS 262935
2008 10 31.50282 08 40 45.73 +16 34 24.9 21.2 V G96 – Mt. Lemmon Survey MPS 262935
